{"data":{"norad_id":65967,"epoch":"2026-09-20T06:25:29.597952Z","epoch_age_seconds":160482,"freshness":"FRESH","line1":"1 65967U 25228W   26263.26770368 -.00000611  00000+0 -51124-4 0  9996","line2":"2 65967  51.9030 202.8226 0001092  68.3393 291.7685 14.79925132 52287","mean_motion":14.79925132,"eccentricity":0.0001092,"inclination_deg":51.903,"raan_deg":202.8226,"arg_perigee_deg":68.3393,"mean_anomaly_deg":291.7685,"bstar":-5.1124e-5,"rev_number":5228,"period_min":97.302219474708,"perigee_km":628.79522604799,"apogee_km":630.32570717469,"semimajor_km":7007.6974666113,"source":"CELESTRAK","updated_at":"2026-09-21T09:00:15.683940Z"}}